Stations météo

réclame
Mon MeteoGroup
Timrå/Midlanda, Suède (2366): Température de l'air & dewpoint: 15.08.2018 06:00:00 - 21.08.2018 06:00:00 (CEST)Timrå/Midlanda, Suède (2366): Vitesse du vent: 15.08.2018 06:00:00 - 21.08.2018 06:00:00 (CEST)Timrå/Midlanda, Suède (2366): Direction du vent: 15.08.2018 06:00:00 - 21.08.2018 06:00:00 (CEST)Timrå/Midlanda, Suède (2366): reduced air pressure: 15.08.2018 06:00:00 - 21.08.2018 06:00:00 (CEST)Timrå/Midlanda, Suède (2366): visibility: 15.08.2018 06:00:00 - 21.08.2018 06:00:00 (CEST)
Date & Time tt [°C] td [°C] ff [km/h] ff [knt] dd ppp [hPa] vv [km]
21.08.2018 06:00:00 - - - - - - -
21.08.2018 05:00:00 - - - - - - -
21.08.2018 04:00:00 - - - - - - -
21.08.2018 03:00:00 - - - - - - -
21.08.2018 02:00:00 - - - - - - -
21.08.2018 01:00:00 - - - - - - -
21.08.2018 00:00:00 - - - - - - -
20.08.2018 23:00:00 - - - - - - -
20.08.2018 22:00:00 - - - - - - -
20.08.2018 21:00:00 - - - - - - -
20.08.2018 20:00:00 - - - - - - -
20.08.2018 19:00:00 - - - - - - -
20.08.2018 18:00:00 - - - - - - -
20.08.2018 17:00:00 - - - - - - -
20.08.2018 16:00:00 16,0 5,0 15 8 WNW - 10
20.08.2018 15:00:00 16,2 6,0 16 9 NW 1008,2 10
20.08.2018 14:00:00 16,2 5,3 15 8 W 1008,2 10
20.08.2018 13:00:00 16,1 6,0 18 10 NW 1008,5 10
20.08.2018 12:00:00 15,9 5,1 13 7 NW 1008,7 10
20.08.2018 11:00:00 15,4 6,0 16 9 NNW 1008,8 10
20.08.2018 10:00:00 15,0 5,9 15 8 WNW 1009,0 10
20.08.2018 09:00:00 14,4 6,8 4 2 - 1009,0 10
20.08.2018 08:00:00 12,0 7,0 0 0 N 1009,2 10
20.08.2018 07:00:00 10,6 7,2 4 2 - 1009,6 10
20.08.2018 06:00:00 9,0 7,3 4 2 - 1009,5 10
20.08.2018 05:00:00 8,9 7,5 8 4 N 1009,5 10
20.08.2018 04:00:00 7,9 7,0 0 0 N 1009,9 10
20.08.2018 03:00:00 7,9 6,6 0 0 N 1009,8 10
20.08.2018 02:00:00 10,0 6,6 0 0 N 1009,9 10
20.08.2018 01:00:00 9,9 7,2 0 0 N 1010,2 10
20.08.2018 00:00:00 11,4 6,7 5 3 W 1010,2 10
19.08.2018 23:00:00 13,2 6,2 11 6 WNW 1009,8 10
19.08.2018 22:00:00 13,3 6,9 8 4 NW 1009,7 10
19.08.2018 21:00:00 14,8 6,9 8 4 NW 1009,2 10
19.08.2018 20:00:00 16,8 6,3 8 4 WNW 1008,9 10
19.08.2018 19:00:00 19,3 5,4 11 6 W 1008,6 10
19.08.2018 18:00:00 19,9 5,1 9 5 W 1008,5 10
19.08.2018 17:00:00 20,9 4,9 15 8 W 1008,2 10
19.08.2018 16:00:00 20,3 4,4 16 9 W 1008,0 10
19.08.2018 15:00:00 20,6 6,3 11 6 W 1008,0 10
19.08.2018 14:00:00 19,4 5,4 15 8 WNW 1007,9 10
19.08.2018 13:00:00 19,3 5,1 24 13 W 1007,5 10
19.08.2018 12:00:00 18,7 6,0 22 12 WNW 1007,2 10
19.08.2018 11:00:00 17,7 6,5 22 12 W 1006,8 10
19.08.2018 10:00:00 17,2 7,1 16 9 W 1006,4 10
19.08.2018 09:00:00 15,8 8,9 2 1 - 1005,9 10
19.08.2018 08:00:00 14,1 9,7 4 2 - 1005,5 10
19.08.2018 07:00:00 11,3 10,5 4 2 NNW 1004,9 10
19.08.2018 06:00:00 9,1 8,9 0 0 N 1004,2 0,1
19.08.2018 05:00:00 8,2 7,8 2 1 - 1003,7 0,3
19.08.2018 04:00:00 12,4 9,7 9 5 SW 1003,3 10
19.08.2018 03:00:00 11,9 10,7 5 3 SE 1002,8 10
19.08.2018 02:00:00 11,2 10,7 5 3 ESE 1002,3 10
19.08.2018 01:00:00 13,1 11,8 8 4 S 1001,6 10
19.08.2018 00:00:00 13,4 12,3 4 2 - 1001,3 10
18.08.2018 23:00:00 14,2 12,9 16 9 S 1000,9 10
18.08.2018 22:00:00 13,6 12,8 13 7 SE 1001,3 10
18.08.2018 21:00:00 14,0 13,0 18 10 SSE 1002,6 10
18.08.2018 20:00:00 15,0 12,1 18 10 SE 1002,8 10
18.08.2018 19:00:00 15,1 12,1 13 7 SE 1003,6 10
18.08.2018 18:00:00 18,0 10,3 15 8 S 1004,7 10
18.08.2018 17:00:00 18,2 10,0 16 9 S 1005,5 10
18.08.2018 16:00:00 18,9 9,7 15 8 S 1006,1 10
18.08.2018 15:00:00 19,0 9,0 15 8 S 1006,4 10
18.08.2018 14:00:00 19,1 8,9 18 10 S 1006,9 10
18.08.2018 13:00:00 19,0 9,2 22 12 S 1007,3 10
18.08.2018 12:00:00 19,7 8,8 16 9 S 1007,5 10
18.08.2018 11:00:00 17,6 9,5 13 7 S 1008,2 10
18.08.2018 10:00:00 17,2 9,9 11 6 S 1008,8 10
18.08.2018 09:00:00 15,6 10,0 9 5 SW 1009,2 10
18.08.2018 08:00:00 14,2 9,3 0 0 N 1009,7 10
18.08.2018 07:00:00 10,9 9,8 4 2 - 1010,1 10
18.08.2018 06:00:00 9,2 8,9 4 2 NNW 1010,1 5
18.08.2018 05:00:00 7,3 6,9 5 3 NW 1010,0 0,4
18.08.2018 04:00:00 9,3 8,9 0 0 N 1010,0 10
18.08.2018 03:00:00 11,6 10,4 4 2 - 1009,9 10
18.08.2018 02:00:00 10,2 9,1 2 1 - 1009,7 10
18.08.2018 01:00:00 11,4 10,5 0 0 N 1009,4 10
18.08.2018 00:00:00 14,6 10,4 2 1 - 1009,0 10
17.08.2018 23:00:00 16,0 10,3 5 3 - 1008,5 10
17.08.2018 22:00:00 17,2 10,6 11 6 S 1008,1 10
17.08.2018 21:00:00 18,0 11,3 8 4 SSE 1008,0 10
17.08.2018 20:00:00 19,5 11,3 15 8 S 1007,8 10
17.08.2018 19:00:00 19,8 11,2 15 8 S 1007,9 10
17.08.2018 18:00:00 20,4 11,4 18 10 S 1008,2 10
17.08.2018 17:00:00 20,7 11,1 16 9 S 1008,5 10
17.08.2018 16:00:00 21,2 11,1 21 11 S 1008,2 10
17.08.2018 15:00:00 21,9 11,4 18 10 S 1008,5 10
17.08.2018 14:00:00 21,9 11,6 18 10 S 1008,6 10
17.08.2018 13:00:00 22,7 11,2 18 10 SSW 1008,6 10
17.08.2018 12:00:00 21,8 10,6 21 11 SSW 1008,8 10
17.08.2018 11:00:00 22,4 12,9 16 9 SSW 1008,2 10
17.08.2018 10:00:00 21,9 14,0 26 14 S 1008,0 10
17.08.2018 09:00:00 21,2 15,0 21 11 SSE 1007,9 10
17.08.2018 08:00:00 18,9 15,0 16 9 SE 1007,7 10
17.08.2018 07:00:00 17,0 14,8 15 8 ESE 1008,0 10
17.08.2018 06:00:00 16,6 14,8 9 5 ENE 1008,1 10
17.08.2018 05:00:00 16,7 14,7 18 10 ESE 1008,2 10
17.08.2018 04:00:00 16,1 14,6 21 11 SE 1008,6 10
17.08.2018 03:00:00 16,5 14,7 24 13 SE 1008,7 10
17.08.2018 02:00:00 16,1 14,8 21 11 SE 1008,9 10
17.08.2018 01:00:00 16,9 14,4 18 10 SSE 1009,2 10
17.08.2018 00:00:00 16,1 14,7 26 14 SE 1009,2 10
16.08.2018 23:00:00 16,9 14,7 18 10 SE 1009,6 10
16.08.2018 22:00:00 16,8 14,3 18 10 SE 1009,7 10
16.08.2018 21:00:00 16,7 14,2 18 10 SE 1009,8 10
16.08.2018 20:00:00 17,5 14,6 18 10 SE 1009,8 10
16.08.2018 19:00:00 18,2 14,5 26 14 SE 1009,8 10
16.08.2018 18:00:00 19,1 14,8 24 13 SE 1010,2 10
16.08.2018 17:00:00 18,6 14,7 26 14 SE 1010,6 10
16.08.2018 16:00:00 18,6 14,7 28 15 SE 1010,9 10
16.08.2018 15:00:00 18,3 14,4 26 14 SE 1011,0 10
16.08.2018 14:00:00 18,5 14,3 26 14 SE 1011,1 10
16.08.2018 13:00:00 18,2 13,9 28 15 SE 1011,2 10
16.08.2018 12:00:00 17,9 13,6 24 13 SE 1011,4 10
16.08.2018 11:00:00 18,5 13,7 24 13 SE 1011,6 10
16.08.2018 10:00:00 17,7 13,3 13 7 SE 1011,6 10
16.08.2018 09:00:00 13,5 11,8 0 0 N 1011,9 10
16.08.2018 08:00:00 11,2 10,6 0 0 N 1012,1 10
16.08.2018 07:00:00 10,2 9,7 4 2 NW 1012,3 10
16.08.2018 06:00:00 9,9 9,6 0 0 N 1012,2 10
16.08.2018 05:00:00 8,9 8,8 2 1 WNW 1012,3 10
16.08.2018 04:00:00 9,6 9,3 4 2 W 1012,3 10
16.08.2018 03:00:00 10,1 9,8 4 2 W 1012,4 10
16.08.2018 02:00:00 11,5 11,2 0 0 N 1012,5 10
16.08.2018 01:00:00 11,5 10,7 5 3 E 1012,6 10
16.08.2018 00:00:00 13,1 11,9 5 3 E 1012,5 10
15.08.2018 23:00:00 12,8 11,6 11 6 ESE 1012,3 10
15.08.2018 22:00:00 14,1 11,7 11 6 ESE 1012,3 10
15.08.2018 21:00:00 14,7 11,3 13 7 ESE 1012,3 10
15.08.2018 20:00:00 16,1 11,7 15 8 ESE 1012,0 10
15.08.2018 19:00:00 16,8 11,3 13 7 ESE 1011,9 10
15.08.2018 18:00:00 17,3 10,9 22 12 SE 1012,1 10
15.08.2018 17:00:00 18,0 11,4 21 11 SE 1011,8 10
15.08.2018 16:00:00 18,5 11,2 18 10 SE 1011,9 10
15.08.2018 15:00:00 18,2 10,6 22 12 SSE 1011,8 10
15.08.2018 14:00:00 18,0 9,8 21 11 SE 1011,7 10
15.08.2018 13:00:00 18,0 10,0 18 10 SSE 1011,4 10
15.08.2018 12:00:00 17,4 10,0 16 9 SSE 1011,3 10
15.08.2018 11:00:00 17,2 9,4 15 8 SE 1011,4 10
15.08.2018 10:00:00 16,5 9,4 15 8 SE 1011,3 10
15.08.2018 09:00:00 16,8 9,8 9 5 SE 1010,9 10
15.08.2018 08:00:00 14,8 10,7 0 0 N 1010,9 10
15.08.2018 07:00:00 11,4 10,3 4 2 NNW 1010,9 10
15.08.2018 06:00:00 9,6 8,8 5 3 WNW 1010,7 10

tt = Température de l'air
td = dewpoint
ff = Vitesse du vent
dd = Direction du vent
ppp = reduced air pressure
vv = visibility

stations d'obs. à proximité